• în România
  • Lista ţărilor
  • Pe 7 zile
  • Temperatura apei
  • Hartă satelitară
  • Meteo pe hartă
  • Widget-uri
  • user-avatar
    Intrare

    Meteo pe oră la Chernovskiy

    Astăzi, 23 Octombrie, Marţi

    Timp Temperatura Precipitaţii Vânt Presiune Umiditate
    00:00 +3°C° 0 mm 3 m/s 764 mmHg 66%
    01:00 +4°C° 0 mm 3 m/s 763 mmHg 65%
    02:00 +4°C° 0 mm 3 m/s 763 mmHg 64%
    03:00 +4°C° 0 mm 3 m/s 762 mmHg 67%
    04:00 +4°C° 0 mm 3 m/s 762 mmHg 66%
    05:00 +4°C° 0 mm 4 m/s 762 mmHg 65%
    06:00 +4°C° 0 mm 4 m/s 761 mmHg 64%
    07:00 +5°C° 0 mm 4 m/s 761 mmHg 61%
    08:00 +6°C° 0 mm 5 m/s 760 mmHg 58%
    09:00 +6°C° 0 mm 5 m/s 760 mmHg 55%
    10:00 +7°C° 0 mm 5 m/s 759 mmHg 51%
    11:00 +8°C° 0 mm 5 m/s 759 mmHg 47%
    12:00 +9°C° 0 mm 6 m/s 758 mmHg 43%
    13:00 +9°C° 0 mm 5 m/s 757 mmHg 44%
    14:00 +9°C° 0 mm 5 m/s 756 mmHg 44%
    15:00 +9°C° 0 mm 5 m/s 756 mmHg 45%
    16:00 +8°C° 0.1 mm 5 m/s 755 mmHg 50%
    17:00 +8°C° 0.1 mm 6 m/s 755 mmHg 55%
    18:00 +8°C° 0.1 mm 6 m/s 754 mmHg 60%
    19:00 +8°C° 0 mm 5 m/s 753 mmHg 61%
    20:00 +8°C° 0 mm 5 m/s 753 mmHg 62%
    21:00 +9°C° 0 mm 5 m/s 752 mmHg 63%
    22:00 +10°C° 0.1 mm 4 m/s 752 mmHg 65%
    23:00 +10°C° 0.1 mm 4 m/s 751 mmHg 66%

    Mâine, 24 Octombrie, Miercuri

    Timp Temperatura Precipitaţii Vânt Presiune Umiditate
    00:00 +10°C° 0.1 mm 4 m/s 751 mmHg 68%
    01:00 +10°C° 0 mm 4 m/s 751 mmHg 69%
    02:00 +10°C° 0 mm 4 m/s 750 mmHg 71%
    03:00 +10°C° 0 mm 3 m/s 750 mmHg 73%
    04:00 +9°C° 0 mm 3 m/s 750 mmHg 78%
    05:00 +9°C° 0 mm 3 m/s 750 mmHg 82%
    06:00 +8°C° 0 mm 3 m/s 750 mmHg 87%
    07:00 +8°C° 0 mm 4 m/s 750 mmHg 85%
    08:00 +10°C° 0 mm 4 m/s 749 mmHg 83%
    09:00 +10°C° 0 mm 5 m/s 749 mmHg 82%
    10:00 +12°C° 0 mm 5 m/s 749 mmHg 76%
    11:00 +11°C° 0 mm 6 m/s 749 mmHg 70%
    12:00 +13°C° 0 mm 6 m/s 749 mmHg 64%
    13:00 +13°C° 0 mm 5 m/s 748 mmHg 60%
    14:00 +13°C° 0 mm 5 m/s 748 mmHg 57%
    15:00 +13°C° 0 mm 5 m/s 748 mmHg 53%
    16:00 +12°C° 0 mm 4 m/s 748 mmHg 57%
    17:00 +11°C° 0 mm 4 m/s 748 mmHg 61%
    18:00 +10°C° 0 mm 3 m/s 748 mmHg 65%
    19:00 +10°C° 0 mm 4 m/s 748 mmHg 69%
    20:00 +10°C° 0 mm 4 m/s 748 mmHg 72%
    21:00 +9°C° 0 mm 5 m/s 748 mmHg 76%
    22:00 +9°C° 0 mm 5 m/s 748 mmHg 75%
    23:00 +9°C° 0 mm 5 m/s 747 mmHg 75%

    Poimâine, 25 Octombrie, Joi

    Timp Temperatura Precipitaţii Vânt Presiune Umiditate
    00:00 +9°C° 0 mm 5 m/s 747 mmHg 74%
    01:00 +9°C° 0.6 mm 6 m/s 747 mmHg 77%
    02:00 +10°C° 0.6 mm 6 m/s 747 mmHg 79%
    03:00 +10°C° 0.6 mm 6 m/s 746 mmHg 82%
    04:00 +10°C° 0.4 mm 6 m/s 746 mmHg 82%
    05:00 +10°C° 0.4 mm 6 m/s 746 mmHg 82%
    06:00 +10°C° 0.4 mm 6 m/s 745 mmHg 82%
    07:00 +11°C° 0.4 mm 6 m/s 745 mmHg 77%
    08:00 +11°C° 0.4 mm 7 m/s 744 mmHg 71%
    09:00 +11°C° 0.4 mm 7 m/s 744 mmHg 65%
    10:00 +12°C° 0.1 mm 7 m/s 744 mmHg 62%
    11:00 +14°C° 0.1 mm 7 m/s 743 mmHg 59%
    12:00 +14°C° 0.1 mm 7 m/s 743 mmHg 56%
    13:00 +15°C° 0 mm 6 m/s 743 mmHg 57%
    14:00 +15°C° 0 mm 6 m/s 742 mmHg 59%
    15:00 +16°C° 0 mm 6 m/s 742 mmHg 61%
    16:00 +16°C° 0.1 mm 5 m/s 741 mmHg 65%
    17:00 +15°C° 0.1 mm 4 m/s 741 mmHg 70%
    18:00 +14°C° 0.1 mm 3 m/s 741 mmHg 74%
    19:00 +14°C° 0.2 mm 3 m/s 741 mmHg 77%
    20:00 +13°C° 0.2 mm 3 m/s 741 mmHg 80%
    21:00 +13°C° 0.2 mm 3 m/s 740 mmHg 84%
    22:00 +12°C° 0.6 mm 3 m/s 741 mmHg 86%
    23:00 +13°C° 0.6 mm 2 m/s 741 mmHg 89%

    26 Octombrie, Vineri

    Timp Temperatura Precipitaţii Vânt Presiune Umiditate
    00:00 +13°C° 0.6 mm 2 m/s 741 mmHg 92%
    01:00 +11°C° 1.8 mm 3 m/s 741 mmHg 90%
    02:00 +11°C° 1.8 mm 3 m/s 742 mmHg 89%
    03:00 +10°C° 1.8 mm 3 m/s 742 mmHg 88%
    04:00 +9°C° 0.4 mm 3 m/s 742 mmHg 85%
    05:00 +9°C° 0.4 mm 3 m/s 743 mmHg 82%
    06:00 +8°C° 0.4 mm 3 m/s 743 mmHg 78%
    07:00 +7°C° 0 mm 4 m/s 744 mmHg 75%
    08:00 +8°C° 0 mm 4 m/s 744 mmHg 71%
    09:00 +8°C° 0 mm 4 m/s 745 mmHg 68%
    10:00 +9°C° 0 mm 5 m/s 745 mmHg 64%
    11:00 +9°C° 0 mm 5 m/s 746 mmHg 60%
    12:00 +10°C° 0 mm 5 m/s 746 mmHg 56%
    13:00 +10°C° 0 mm 5 m/s 746 mmHg 56%
    14:00 +10°C° 0 mm 4 m/s 747 mmHg 56%
    15:00 +10°C° 0 mm 4 m/s 747 mmHg 57%
    16:00 +10°C° 0.1 mm 4 m/s 747 mmHg 60%
    17:00 +8°C° 0.1 mm 4 m/s 748 mmHg 63%
    18:00 +8°C° 0.1 mm 3 m/s 748 mmHg 67%
    19:00 +7°C° 0.1 mm 4 m/s 748 mmHg 68%
    20:00 +6°C° 0.1 mm 4 m/s 749 mmHg 69%
    21:00 +5°C° 0.1 mm 4 m/s 749 mmHg 71%
    22:00 +5°C° 0 mm 4 m/s 750 mmHg 72%
    23:00 +4°C° 0 mm 3 m/s 750 mmHg 74%

    27 Octombrie, Sâmbătă

    Timp Temperatura Precipitaţii Vânt Presiune Umiditate
    00:00 +3°C° 0 mm 3 m/s 751 mmHg 76%
    01:00 +3°C° 0 mm 3 m/s 751 mmHg 78%
    02:00 +3°C° 0 mm 3 m/s 751 mmHg 80%
    03:00 +2°C° 0 mm 3 m/s 752 mmHg 82%
    04:00 +2°C° 0 mm 3 m/s 752 mmHg 82%
    05:00 +1°C° 0 mm 3 m/s 752 mmHg 82%
    06:00 +1°C° 0 mm 3 m/s 753 mmHg 83%
    07:00 +2°C° 0 mm 3 m/s 753 mmHg 77%
    08:00 +3°C° 0 mm 4 m/s 753 mmHg 71%
    09:00 +4°C° 0 mm 4 m/s 753 mmHg 66%
    10:00 +3°C° 0 mm 5 m/s 754 mmHg 62%
    11:00 +5°C° 0 mm 5 m/s 754 mmHg 59%
    12:00 +5°C° 0 mm 6 m/s 754 mmHg 56%
    13:00 +5°C° 0 mm 6 m/s 754 mmHg 59%
    14:00 +5°C° 0 mm 6 m/s 755 mmHg 61%
    15:00 +4°C° 0 mm 6 m/s 755 mmHg 63%
    16:00 +5°C° 0 mm 5 m/s 756 mmHg 64%
    17:00 +4°C° 0 mm 4 m/s 756 mmHg 65%
    18:00 +3°C° 0 mm 4 m/s 757 mmHg 67%
    19:00 +3°C° 0 mm 4 m/s 757 mmHg 69%
    20:00 +3°C° 0 mm 4 m/s 758 mmHg 71%
    21:00 +2°C° 0 mm 3 m/s 758 mmHg 73%
    22:00 +1°C° 0 mm 4 m/s 758 mmHg 75%
    23:00 +1°C° 0 mm 4 m/s 758 mmHg 77%

    28 Octombrie, Duminică

    Timp Temperatura Precipitaţii Vânt Presiune Umiditate
    00:00 +1°C° 0 mm 4 m/s 758 mmHg 79%
    01:00 +1°C° 0 mm 4 m/s 758 mmHg 79%
    02:00 +1°C° 0 mm 5 m/s 758 mmHg 78%
    03:00 +2°C° 0 mm 6 m/s 758 mmHg 78%
    04:00 +2°C° 0.1 mm 7 m/s 757 mmHg 77%
    05:00 +2°C° 0.1 mm 8 m/s 756 mmHg 76%
    06:00 +2°C° 0.1 mm 8 m/s 756 mmHg 75%
    07:00 +3°C° 0.3 mm 9 m/s 755 mmHg 75%
    08:00 +5°C° 0.3 mm 9 m/s 755 mmHg 76%
    09:00 +5°C° 0.3 mm 10 m/s 755 mmHg 77%
    10:00 +6°C° 1.3 mm 9 m/s 754 mmHg 80%
    11:00 +6°C° 1.3 mm 9 m/s 754 mmHg 83%
    12:00 +7°C° 1.3 mm 8 m/s 754 mmHg 86%
    13:00 +7°C° 0.8 mm 8 m/s 754 mmHg 86%
    14:00 +9°C° 0.8 mm 7 m/s 754 mmHg 87%
    15:00 +10°C° 0.8 mm 7 m/s 754 mmHg 88%
    16:00 +10°C° 0.2 mm 7 m/s 755 mmHg 86%
    17:00 +9°C° 0.2 mm 7 m/s 755 mmHg 84%
    18:00 +9°C° 0.2 mm 7 m/s 756 mmHg 82%
    19:00 +9°C° 0 mm 6 m/s 756 mmHg 81%
    20:00 +8°C° 0 mm 5 m/s 757 mmHg 80%
    21:00 +7°C° 0 mm 5 m/s 758 mmHg 79%
    22:00 +7°C° 0 mm 4 m/s 759 mmHg 78%
    23:00 +6°C° 0 mm 4 m/s 759 mmHg 77%

    29 Octombrie, Luni

    Timp Temperatura Precipitaţii Vânt Presiune Umiditate
    00:00 +6°C° 0 mm 4 m/s 760 mmHg 77%
    01:00 +7°C° 0 mm 3 m/s 761 mmHg 77%
    02:00 +5°C° 0 mm 3 m/s 761 mmHg 76%
    03:00 +5°C° 0 mm 3 m/s 762 mmHg 76%
    04:00 +5°C° 0 mm 2 m/s 762 mmHg 76%
    05:00 +5°C° 0 mm 2 m/s 763 mmHg 77%
    06:00 +5°C° 0 mm 2 m/s 763 mmHg 77%
    07:00 +5°C° 0 mm 2 m/s 764 mmHg 73%
    08:00 +5°C° 0 mm 2 m/s 764 mmHg 69%
    09:00 +6°C° 0 mm 2 m/s 765 mmHg 65%
    10:00 +6°C° 0 mm 2 m/s 765 mmHg 62%
    11:00 +7°C° 0 mm 1 m/s 765 mmHg 59%
    12:00 +7°C° 0 mm 1 m/s 766 mmHg 56%
    13:00 +8°C° 0 mm 1 m/s 766 mmHg 55%
    14:00 +8°C° 0 mm 1 m/s 766 mmHg 55%
    15:00 +8°C° 0 mm 1 m/s 766 mmHg 54%
    16:00 +8°C° 0.1 mm 1 m/s 767 mmHg 58%
    17:00 +6°C° 0.1 mm 2 m/s 767 mmHg 61%
    18:00 +6°C° 0.1 mm 2 m/s 767 mmHg 65%
    19:00 +6°C° 0.1 mm 2 m/s 767 mmHg 67%
    20:00 +5°C° 0.1 mm 3 m/s 767 mmHg 69%
    21:00 +5°C° 0.1 mm 3 m/s 767 mmHg 71%
    22:00 +4°C° 0 mm 3 m/s 767 mmHg 73%
    23:00 +4°C° 0 mm 3 m/s 767 mmHg 74%
    Arată mai mult